sat.trackr.live / text

‹ back to catalog

STARLINK-36302

NORAD 68524 · 2026-068S

PAYLOAD ACTIVE UNKNOWN

§ Identity

Operator
Country
US
Launch date
2026-03-30
Launch site
AFETR
Launch vehicle
Mass (kg)
RCS (m²)

Purposes: comms

External: N2YO · Heavens-Above · Gunter

§ Orbital elements

Epoch: 2026-05-25T03:02:33.218304Z

Period
93.85 min
Inclination
53.1579°
Eccentricity
0.0001469
Mean motion
15.34400235 rev/d
Perigee alt
461.7 km
Apogee alt
463.7 km
Semi-major
6,840.8 km
B*
5.2996e-4
RAAN
133.1033°
Arg perigee
104.4034°
Mean anomaly
255.7131°
Rev number
866

§ Raw data

STARLINK-363021 68524U 26068S   26145.12677336  .00017572  00000+0  52996-3 0  99952 68524  53.1579 133.1033 0001469 104.4034 255.7131 15.34400235  8668

JSON: /api/v1/satellites/68524 · /tle

For live sub-satellite position, see the globe view (requires WebGL).

§ Visibility from observer

Set your observer location to see the next 7 days of passes ≥ 10°. The values pass through the URL so the page stays shareable.

No JS? Fill the form by hand. The geolocation button needs JavaScript.